TimeCST,TemperatureF,Dew PointF,Humidity,Sea Level PressureIn,VisibilityMPH,Wind Direction,Wind SpeedMPH,Gust SpeedMPH,PrecipitationIn,Events,Conditions,WindDirDegrees,DateUTC
12:53 AM,57.9,55.9,93,30.00,7.0,Calm,Calm,-,N/A,,Overcast,0,2012-12-08 06:53:00
1:18 AM,57.2,55.4,94,30.00,6.0,Calm,Calm,-,N/A,,Overcast,0,2012-12-08 07:18:00
1:28 AM,57.2,55.4,94,30.00,6.0,Calm,Calm,-,N/A,,Overcast,0,2012-12-08 07:28:00
1:53 AM,57.0,55.9,96,29.99,6.0,East,3.5,-,N/A,,Overcast,80,2012-12-08 07:53:00
2:46 AM,57.2,57.2,100,29.99,1.8,East,3.5,-,N/A,,Overcast,80,2012-12-08 08:46:00
2:53 AM,57.0,57.0,100,29.98,1.8,East,4.6,-,N/A,,Overcast,90,2012-12-08 08:53:00
2:59 AM,57.2,57.2,100,29.98,3.0,East,5.8,-,N/A,,Overcast,80,2012-12-08 08:59:00
3:30 AM,57.2,55.4,94,29.99,6.0,Calm,Calm,-,N/A,,Mostly Cloudy,0,2012-12-08 09:30:00
3:53 AM,57.0,55.9,96,29.98,5.0,East,3.5,-,N/A,,Partly Cloudy,80,2012-12-08 09:53:00
4:20 AM,57.2,55.4,94,29.99,4.0,Calm,Calm,-,N/A,,Mostly Cloudy,0,2012-12-08 10:20:00
4:37 AM,55.4,55.4,100,29.98,1.8,ENE,4.6,-,N/A,,Overcast,70,2012-12-08 10:37:00
4:51 AM,55.4,55.4,100,29.99,0.5,East,3.5,-,N/A,Fog,Fog,80,2012-12-08 10:51:00
5:53 AM,55.0,55.0,100,30.01,0.2,Calm,Calm,-,N/A,Fog,Fog,0,2012-12-08 11:53:00
6:53 AM,55.9,55.9,100,30.02,0.2,Calm,Calm,-,N/A,Fog,Fog,0,2012-12-08 12:53:00
7:53 AM,57.0,57.0,100,30.04,0.2,Calm,Calm,-,N/A,Fog,Fog,0,2012-12-08 13:53:00
8:53 AM,60.1,59.0,96,30.04,0.8,SSE,3.5,-,N/A,,Overcast,150,2012-12-08 14:53:00
9:01 AM,59.0,59.0,100,30.05,1.0,Calm,Calm,-,N/A,,Overcast,0,2012-12-08 15:01:00
9:53 AM,61.0,60.1,97,30.05,1.2,Calm,Calm,-,N/A,,Overcast,0,2012-12-08 15:53:00
10:17 AM,60.8,60.8,100,30.04,2.0,Calm,Calm,-,N/A,,Overcast,0,2012-12-08 16:17:00
10:31 AM,60.8,60.8,100,30.04,3.0,Calm,Calm,-,0.00,,Overcast,0,2012-12-08 16:31:00
10:53 AM,63.0,62.1,97,30.02,7.0,Calm,Calm,-,0.00,,Overcast,0,2012-12-08 16:53:00
11:17 AM,66.2,62.6,88,30.02,10.0,South,4.6,-,N/A,,Overcast,190,2012-12-08 17:17:00
11:49 AM,66.2,62.6,88,30.00,10.0,SSW,4.6,-,N/A,,Overcast,200,2012-12-08 17:49:00
11:53 AM,66.9,62.1,84,30.00,10.0,SSW,4.6,-,N/A,,Overcast,200,2012-12-08 17:53:00
12:53 PM,68.0,63.0,84,29.98,10.0,South,8.1,-,N/A,,Overcast,190,2012-12-08 18:53:00
1:53 PM,69.1,63.0,81,29.98,10.0,SSE,4.6,-,N/A,,Overcast,160,2012-12-08 19:53:00
2:21 PM,69.8,62.6,78,29.97,10.0,SE,3.5,-,N/A,,Mostly Cloudy,140,2012-12-08 20:21:00
2:53 PM,69.1,63.0,81,29.97,10.0,SE,5.8,-,N/A,,Mostly Cloudy,130,2012-12-08 20:53:00
3:39 PM,69.8,64.4,83,29.97,10.0,SE,9.2,-,N/A,,Scattered Clouds,140,2012-12-08 21:39:00
3:53 PM,69.1,64.0,84,29.97,10.0,SSE,8.1,-,N/A,,Mostly Cloudy,160,2012-12-08 21:53:00
4:36 PM,66.2,62.6,88,29.98,10.0,Calm,Calm,-,N/A,,Mostly Cloudy,0,2012-12-08 22:36:00
4:53 PM,66.9,64.0,90,29.99,10.0,Calm,Calm,-,N/A,,Mostly Cloudy,0,2012-12-08 22:53:00
5:00 PM,66.2,64.4,94,29.99,10.0,Calm,Calm,-,N/A,,Overcast,0,2012-12-08 23:00:00
5:33 PM,66.2,62.6,88,30.00,10.0,Calm,Calm,-,N/A,,Mostly Cloudy,0,2012-12-08 23:33:00
5:53 PM,66.0,63.0,90,30.00,10.0,SSE,3.5,-,N/A,,Partly Cloudy,150,2012-12-08 23:53:00
6:20 PM,64.4,62.6,94,30.01,10.0,SSE,5.8,-,N/A,,Mostly Cloudy,150,2012-12-09 00:20:00
6:39 PM,66.2,62.6,88,30.02,10.0,Calm,Calm,-,N/A,,Overcast,0,2012-12-09 00:39:00
7:53 PM,64.9,63.0,93,30.03,10.0,Calm,Calm,-,N/A,,Overcast,0,2012-12-09 01:53:00
8:53 PM,64.9,63.0,93,30.04,9.0,SSE,4.6,-,N/A,,Overcast,150,2012-12-09 02:53:00
9:53 PM,64.9,63.0,93,30.04,8.0,South,5.8,-,N/A,,Overcast,170,2012-12-09 03:53:00
10:53 PM,64.9,63.0,93,30.04,10.0,SSE,4.6,-,N/A,,Overcast,160,2012-12-09 04:53:00
11:53 PM,64.9,63.0,93,30.04,9.0,SSE,4.6,-,N/A,,Overcast,160,2012-12-09 05:53:00